GFSFLT1_prec_pwat_099.txt.gz
Precipitable_Water
0.32 0.34 0.35 0.37 0.40 0.43 0.52 0.65 0.78 0.88 1.03 1.09 1.14 1.27 1.46 1.40 1.24 1.16 1.17 1.17 1.19 1.16 1.11 1.12 1.08 1.01 1.06 1.11 1.17 1.30 1.39 1.40
0.30 0.32 0.33 0.36 0.39 0.41 0.48 0.61 0.70 0.86 0.90 0.91 0.99 1.03 1.24 1.39 1.41 1.35 1.27 1.24 1.20 1.19 1.12 1.12 1.08 0.95 1.01 1.09 1.13 1.14 1.21 1.37
0.30 0.33 0.34 0.37 0.39 0.42 0.45 0.55 0.68 0.78 0.86 0.85 0.93 0.94 1.14 1.25 1.39 1.52 1.44 1.29 1.21 1.19 1.12 1.10 1.09 0.95 0.99 1.05 1.05 1.03 1.09 1.24
0.47 0.47 0.47 0.51 0.47 0.46 0.46 0.54 0.67 0.76 0.84 0.91 0.96 1.06 1.15 1.16 1.29 1.37 1.37 1.31 1.22 1.19 1.10 1.13 1.12 1.03 0.93 1.00 1.04 1.01 0.95 1.10
0.62 0.59 0.57 0.59 0.63 0.67 0.60 0.57 0.68 0.80 0.92 0.88 0.84 0.78 0.84 1.01 1.16 1.27 1.28 1.23 1.22 1.13 1.11 1.14 1.14 1.06 0.95 0.99 1.06 1.06 1.08 0.99
0.68 0.70 0.72 0.77 0.74 0.68 0.70 0.58 0.67 0.76 0.89 0.92 0.85 0.83 0.87 0.97 1.14 1.21 1.26 1.21 1.22 1.14 1.08 1.15 1.13 1.04 0.99 0.98 1.03 1.10 1.16 1.15
0.71 0.81 0.86 0.89 0.85 0.79 0.76 0.68 0.70 0.83 0.91 0.96 0.93 0.82 0.92 1.00 1.04 1.13 1.15 1.18 1.12 1.10 1.15 1.15 1.16 0.99 1.00 0.99 1.07 1.15 1.20 1.22
0.74 0.76 0.85 0.88 0.87 0.87 0.79 0.80 0.79 0.84 0.92 1.00 0.96 0.94 0.93 0.94 1.01 1.17 1.09 1.10 1.04 1.06 1.11 1.11 1.06 0.96 1.06 1.04 1.05 1.15 1.21 1.20
0.73 0.82 0.83 0.85 0.90 0.92 0.83 0.85 1.01 1.02 1.00 0.98 1.03 1.03 1.03 1.10 1.23 1.10 1.10 1.13 1.07 1.10 1.08 1.12 0.96 0.98 1.07 1.05 1.05 1.14 1.20 1.23
0.74 0.78 0.87 0.87 0.89 0.91 0.90 0.91 1.06 1.07 1.09 1.13 1.07 1.09 1.17 1.17 1.20 1.14 1.19 1.20 1.11 1.08 1.09 1.03 0.95 1.00 1.07 1.05 1.03 1.10 1.20 1.24
0.75 0.80 0.83 0.86 0.86 0.88 0.95 0.99 1.01 1.16 1.18 1.15 1.19 1.20 1.28 1.28 1.20 1.17 1.19 1.17 1.11 1.10 1.08 1.01 0.97 0.99 1.05 1.02 1.00 1.07 1.12 1.17
0.68 0.72 0.75 0.78 0.85 0.92 0.96 0.99 1.00 1.05 1.21 1.27 1.24 1.28 1.36 1.29 1.29 1.23 1.19 1.16 1.17 1.13 1.07 0.97 0.95 0.95 0.99 0.96 0.97 1.02 1.12 1.21
0.64 0.67 0.72 0.75 0.81 0.89 0.97 0.98 0.99 1.03 1.11 1.26 1.29 1.32 1.35 1.34 1.30 1.22 1.22 1.21 1.21 1.13 1.05 0.96 0.94 0.96 0.98 0.94 0.93 1.05 1.18 1.27
0.59 0.63 0.67 0.72 0.75 0.83 0.92 0.98 1.02 1.05 1.08 1.12 1.14 1.14 1.19 1.33 1.27 1.23 1.23 1.20 1.19 1.11 1.05 0.97 0.93 0.94 0.92 0.93 0.99 1.07 1.14 1.25
0.57 0.58 0.62 0.68 0.74 0.77 0.82 0.89 0.98 1.04 1.10 1.13 1.10 1.20 1.29 1.34 1.29 1.22 1.17 1.16 1.15 1.12 1.05 0.97 0.93 0.94 0.93 0.96 1.01 1.10 1.11 1.18
0.53 0.55 0.59 0.64 0.71 0.75 0.78 0.82 0.88 0.91 0.94 1.04 1.09 1.19 1.21 1.27 1.26 1.16 1.15 1.14 1.16 1.11 1.03 0.95 0.91 0.93 0.91 0.94 1.00 1.05 1.06 1.08
0.50 0.53 0.56 0.60 0.66 0.72 0.77 0.79 0.83 0.87 0.88 0.90 0.99 1.10 1.17 1.18 1.10 1.11 1.12 1.10 1.14 1.09 1.02 0.93 0.88 0.87 0.93 0.97 0.99 0.99 1.00 1.01
0.48 0.51 0.54 0.58 0.64 0.70 0.73 0.77 0.79 0.80 0.83 0.90 0.92 0.91 1.00 1.09 1.07 1.03 1.03 1.02 1.02 1.03 1.02 0.99 0.89 0.87 0.93 0.98 0.98 0.95 0.96 0.93
0.48 0.51 0.55 0.60 0.65 0.67 0.72 0.74 0.77 0.80 0.85 0.89 0.90 0.91 0.95 0.97 0.98 0.96 0.96 0.98 0.97 0.96 0.98 0.99 0.93 0.89 0.91 0.95 0.97 0.93 0.90 0.91

GFSFLT1_prec_pwat_102.txt.gz
Precipitable_Water
0.36 0.36 0.38 0.38 0.38 0.40 0.41 0.46 0.65 0.77 0.90 1.03 1.20 1.25 1.19 1.20 1.22 1.34 1.16 1.15 1.17 1.14 1.13 1.11 1.13 1.12 1.06 1.05 1.04 1.11 1.14 1.21
0.38 0.45 0.50 0.48 0.43 0.39 0.39 0.41 0.55 0.74 0.84 0.89 0.98 1.10 1.09 1.09 1.18 1.36 1.33 1.18 1.19 1.18 1.15 1.14 1.13 1.09 1.06 1.03 1.04 1.02 1.09 1.22
0.41 0.45 0.49 0.52 0.54 0.53 0.44 0.42 0.52 0.69 0.80 0.87 0.86 0.93 1.06 1.01 1.14 1.29 1.42 1.34 1.22 1.24 1.21 1.17 1.13 1.10 1.08 1.03 1.00 0.95 1.04 1.15
0.51 0.52 0.56 0.58 0.57 0.57 0.56 0.56 0.55 0.69 0.77 0.87 0.92 0.97 1.07 1.07 1.07 1.19 1.34 1.43 1.41 1.38 1.30 1.23 1.19 1.13 1.05 1.06 1.00 0.97 0.92 1.03
0.58 0.61 0.62 0.64 0.67 0.68 0.63 0.63 0.64 0.73 0.80 0.83 0.81 0.77 0.72 0.85 0.93 1.08 1.19 1.35 1.46 1.48 1.38 1.29 1.22 1.11 1.08 1.08 1.01 0.99 1.02 0.92
0.56 0.59 0.63 0.68 0.72 0.73 0.76 0.71 0.69 0.71 0.87 0.82 0.76 0.76 0.80 0.83 0.87 0.93 1.17 1.24 1.42 1.44 1.42 1.32 1.19 1.08 1.12 1.13 1.00 0.97 1.06 1.02
0.56 0.60 0.64 0.66 0.70 0.77 0.79 0.81 0.78 0.77 0.94 0.87 0.81 0.74 0.80 0.85 0.87 0.89 1.05 1.20 1.33 1.37 1.34 1.28 1.17 1.09 1.11 1.16 1.04 1.00 1.02 1.10
0.52 0.56 0.61 0.65 0.71 0.78 0.85 0.85 0.84 0.83 0.88 0.89 0.82 0.84 0.87 0.89 0.86 0.87 0.98 1.10 1.21 1.23 1.22 1.21 1.13 1.12 1.15 1.12 1.01 1.02 1.04 1.05
0.57 0.61 0.66 0.72 0.79 0.88 0.87 0.85 0.91 0.90 0.93 0.96 0.97 1.00 0.94 0.96 0.95 1.00 1.06 1.14 1.19 1.22 1.20 1.23 1.15 1.18 1.17 1.14 0.98 1.06 1.07 1.06
0.62 0.69 0.74 0.77 0.84 0.87 0.89 0.88 0.94 0.95 1.16 1.10 1.06 1.06 1.04 1.02 1.00 1.10 1.15 1.32 1.30 1.23 1.22 1.17 1.17 1.14 1.15 1.00 1.05 1.05 1.06 1.08
0.67 0.70 0.77 0.81 0.84 0.88 0.92 0.90 0.92 1.00 1.12 1.20 1.15 1.10 1.16 1.14 1.12 1.11 1.17 1.27 1.30 1.21 1.22 1.15 1.12 1.12 1.07 1.04 1.04 1.07 1.05 1.07
0.64 0.69 0.76 0.79 0.82 0.86 0.88 0.90 0.96 1.04 1.08 1.16 1.15 1.15 1.15 1.16 1.18 1.22 1.25 1.28 1.30 1.26 1.21 1.12 1.10 1.07 1.05 1.01 1.01 1.01 1.00 1.02
0.62 0.66 0.70 0.74 0.76 0.78 0.83 0.93 0.96 0.98 1.09 1.10 1.18 1.22 1.19 1.21 1.24 1.22 1.29 1.25 1.31 1.26 1.21 1.14 1.10 1.09 1.02 0.98 0.96 0.98 0.95 0.96
0.58 0.61 0.64 0.68 0.73 0.77 0.81 0.91 0.97 1.02 1.04 1.13 1.22 1.20 1.16 1.19 1.27 1.30 1.32 1.32 1.31 1.30 1.24 1.15 1.10 1.06 0.98 0.96 0.96 0.95 0.98 1.02
0.56 0.58 0.59 0.63 0.69 0.74 0.78 0.84 0.94 1.01 1.05 1.05 1.06 1.11 1.19 1.25 1.29 1.23 1.36 1.35 1.31 1.26 1.19 1.14 1.12 1.05 0.97 0.94 0.93 0.94 0.99 1.01
0.52 0.54 0.57 0.59 0.64 0.71 0.76 0.78 0.86 0.93 0.99 1.03 1.02 1.07 1.12 1.18 1.25 1.29 1.33 1.33 1.26 1.21 1.15 1.10 1.07 0.98 0.92 0.93 0.94 0.94 0.97 0.95
0.50 0.52 0.55 0.57 0.60 0.66 0.71 0.75 0.78 0.84 0.86 0.91 0.98 0.99 1.01 1.09 1.19 1.22 1.23 1.20 1.16 1.14 1.09 1.05 0.99 0.95 0.94 0.94 0.94 0.92 0.90 0.87
0.48 0.50 0.53 0.56 0.59 0.64 0.67 0.73 0.76 0.79 0.82 0.86 0.87 0.88 0.91 0.99 1.03 1.05 1.10 1.08 1.08 1.04 1.02 0.99 0.98 0.97 0.93 0.93 0.94 0.92 0.89 0.90
0.49 0.50 0.52 0.56 0.60 0.64 0.67 0.71 0.73 0.74 0.77 0.78 0.82 0.83 0.91 0.95 0.93 0.94 1.02 1.01 0.98 1.00 0.97 0.96 0.97 0.96 0.96 0.94 0.93 0.90 0.89 0.87

GFSFLT1_prec_pwat_108.txt.gz
Precipitable_Water
0.58 0.61 0.64 0.65 0.67 0.66 0.66 0.69 0.68 0.59 0.74 0.94 0.98 1.05 1.13 1.23 1.25 1.25 1.24 1.19 1.19 1.25 1.26 1.21 1.20 1.16 1.17 1.16 1.06 1.13 1.05 0.99
0.59 0.60 0.63 0.66 0.67 0.67 0.66 0.65 0.70 0.69 0.55 0.70 0.83 0.83 0.88 0.96 1.06 1.17 1.26 1.25 1.24 1.21 1.34 1.28 1.22 1.16 1.13 1.16 1.09 1.05 1.03 1.06
0.51 0.56 0.60 0.62 0.64 0.68 0.68 0.67 0.68 0.71 0.70 0.60 0.81 0.89 0.88 0.90 1.02 1.06 1.14 1.24 1.23 1.23 1.27 1.31 1.26 1.18 1.14 1.15 1.06 1.00 1.04 1.07
0.47 0.49 0.52 0.56 0.57 0.60 0.64 0.67 0.69 0.70 0.72 0.70 0.67 0.86 0.92 0.91 0.89 0.91 0.95 1.03 1.15 1.21 1.21 1.30 1.34 1.23 1.10 1.12 1.09 1.03 0.94 1.03
0.46 0.46 0.47 0.49 0.52 0.57 0.59 0.62 0.66 0.70 0.74 0.70 0.67 0.68 0.77 0.81 0.82 0.84 0.87 0.94 1.08 1.20 1.21 1.24 1.38 1.32 1.16 1.13 1.15 1.14 1.07 0.91
0.46 0.47 0.49 0.51 0.53 0.53 0.56 0.58 0.60 0.66 0.70 0.72 0.71 0.64 0.79 0.91 0.88 0.89 0.94 0.94 1.02 1.13 1.18 1.22 1.29 1.39 1.31 1.19 1.17 1.20 1.16 1.03
0.50 0.52 0.51 0.50 0.52 0.53 0.55 0.56 0.57 0.62 0.67 0.71 0.73 0.72 0.70 0.88 0.87 0.88 0.95 0.97 0.98 1.10 1.17 1.20 1.22 1.36 1.39 1.32 1.29 1.28 1.20 1.10
0.46 0.45 0.45 0.46 0.48 0.52 0.54 0.57 0.59 0.63 0.64 0.69 0.73 0.74 0.79 0.75 0.92 0.94 0.99 0.97 0.94 1.00 1.11 1.11 1.16 1.28 1.43 1.50 1.45 1.34 1.28 1.16
0.45 0.45 0.46 0.48 0.50 0.52 0.56 0.60 0.65 0.69 0.67 0.67 0.74 0.78 0.80 0.81 0.87 0.97 1.07 1.03 0.94 1.01 1.09 1.11 1.10 1.24 1.41 1.43 1.48 1.40 1.35 1.20
0.45 0.48 0.49 0.49 0.52 0.57 0.62 0.67 0.73 0.76 0.75 0.73 0.77 0.85 0.90 0.87 0.91 1.00 1.11 1.12 1.05 1.04 1.09 1.14 1.16 1.26 1.31 1.35 1.40 1.36 1.25 1.23
0.40 0.42 0.49 0.51 0.55 0.61 0.68 0.75 0.80 0.83 0.82 0.85 0.90 0.97 1.07 1.04 1.06 1.01 1.08 1.15 1.16 1.07 1.07 1.15 1.17 1.26 1.27 1.32 1.40 1.32 1.32 1.22
0.39 0.44 0.49 0.52 0.58 0.65 0.71 0.77 0.83 0.88 0.90 0.97 1.01 1.09 1.24 1.18 1.12 1.07 1.07 1.15 1.10 1.11 1.11 1.11 1.17 1.13 1.30 1.36 1.35 1.32 1.29 1.22
0.41 0.45 0.49 0.55 0.59 0.69 0.73 0.79 0.85 0.88 0.96 0.99 1.01 1.07 1.16 1.30 1.27 1.17 1.15 1.11 1.12 1.12 1.14 1.17 1.19 1.17 1.26 1.33 1.29 1.31 1.25 1.15
0.41 0.44 0.51 0.56 0.64 0.69 0.73 0.78 0.82 0.88 0.92 0.93 0.96 1.03 1.05 1.12 1.21 1.16 1.15 1.14 1.16 1.15 1.15 1.18 1.20 1.16 1.25 1.31 1.32 1.28 1.21 1.13
0.43 0.45 0.53 0.59 0.64 0.66 0.70 0.75 0.81 0.84 0.90 0.92 0.96 1.00 1.03 1.07 1.12 1.11 1.16 1.19 1.20 1.17 1.19 1.21 1.22 1.21 1.29 1.31 1.24 1.18 1.17 1.14
0.46 0.50 0.55 0.59 0.62 0.63 0.66 0.69 0.75 0.79 0.84 0.89 0.91 0.96 0.99 1.00 1.07 1.08 1.11 1.17 1.26 1.31 1.28 1.28 1.25 1.26 1.26 1.26 1.22 1.15 1.14 1.10
0.50 0.53 0.55 0.57 0.59 0.61 0.64 0.68 0.71 0.75 0.76 0.83 0.90 0.94 0.95 0.98 1.04 1.04 1.08 1.09 1.12 1.21 1.17 1.19 1.18 1.16 1.21 1.23 1.21 1.11 1.10 1.05
0.50 0.53 0.54 0.56 0.57 0.61 0.62 0.66 0.71 0.73 0.72 0.77 0.83 0.87 0.90 0.94 0.97 0.99 0.99 1.01 1.04 1.07 1.07 1.11 1.12 1.14 1.16 1.16 1.13 1.05 1.06 0.99
0.50 0.52 0.54 0.56 0.58 0.60 0.64 0.66 0.68 0.70 0.72 0.75 0.77 0.82 0.84 0.85 0.89 0.91 0.91 0.93 0.94 0.98 0.99 1.03 1.06 1.08 1.11 1.10 1.08 1.05 1.01 0.92

GFSFLT1_prec_pwat_111.txt.gz
Precipitable_Water
0.55 0.69 0.74 0.71 0.71 0.73 0.77 0.80 0.84 0.88 0.82 0.81 1.11 1.25 1.29 1.40 1.41 1.41 1.39 1.38 1.38 1.37 1.34 1.34 1.34 1.20 1.14 1.21 1.19 1.24 1.19 1.11
0.67 0.72 0.72 0.70 0.71 0.71 0.72 0.72 0.75 0.79 0.78 0.74 0.67 0.97 1.15 1.24 1.30 1.37 1.41 1.40 1.39 1.31 1.26 1.22 1.25 1.24 1.15 1.15 1.19 1.14 1.15 1.19
0.66 0.63 0.62 0.62 0.63 0.65 0.66 0.69 0.72 0.74 0.74 0.78 0.80 0.75 0.92 1.03 1.15 1.21 1.28 1.35 1.35 1.32 1.23 1.15 1.21 1.19 1.25 1.15 1.14 1.10 1.15 1.21
0.55 0.52 0.54 0.56 0.55 0.57 0.59 0.61 0.64 0.68 0.71 0.73 0.76 0.76 0.74 0.89 1.01 1.00 1.06 1.18 1.20 1.17 1.25 1.24 1.24 1.21 1.21 1.21 1.17 1.11 1.04 1.17
0.49 0.49 0.50 0.51 0.53 0.57 0.57 0.58 0.59 0.60 0.66 0.65 0.65 0.64 0.64 0.65 0.85 0.98 0.99 1.07 1.12 1.13 1.11 1.14 1.27 1.22 1.19 1.25 1.29 1.20 1.15 1.00
0.45 0.45 0.46 0.49 0.51 0.53 0.55 0.56 0.55 0.56 0.59 0.62 0.62 0.63 0.66 0.72 0.73 0.96 1.00 1.03 1.06 1.03 1.10 1.10 1.14 1.23 1.22 1.19 1.32 1.23 1.17 1.11
0.45 0.46 0.47 0.47 0.50 0.51 0.52 0.52 0.52 0.55 0.57 0.58 0.59 0.58 0.63 0.67 0.70 0.78 1.08 1.01 1.04 1.01 1.06 1.10 1.11 1.18 1.18 1.20 1.25 1.31 1.16 1.15
0.47 0.46 0.46 0.47 0.48 0.49 0.51 0.51 0.50 0.55 0.57 0.58 0.60 0.61 0.60 0.63 0.68 0.74 0.82 1.07 1.04 0.95 1.01 1.10 1.12 1.16 1.19 1.22 1.20 1.33 1.37 1.27
0.44 0.44 0.45 0.45 0.46 0.49 0.51 0.52 0.52 0.56 0.59 0.60 0.64 0.65 0.65 0.64 0.68 0.75 0.82 0.92 1.01 1.08 1.01 1.12 1.19 1.18 1.22 1.25 1.20 1.30 1.36 1.41
0.40 0.42 0.43 0.42 0.44 0.47 0.50 0.51 0.53 0.58 0.61 0.65 0.69 0.74 0.73 0.68 0.68 0.77 0.84 0.91 1.01 1.15 1.09 1.15 1.18 1.21 1.23 1.26 1.21 1.21 1.36 1.56
0.38 0.37 0.39 0.39 0.41 0.46 0.50 0.52 0.53 0.60 0.65 0.71 0.79 0.85 0.84 0.79 0.73 0.77 0.88 0.96 1.01 1.13 1.12 1.12 1.11 1.17 1.24 1.27 1.25 1.28 1.33 1.38
0.32 0.32 0.34 0.39 0.40 0.46 0.50 0.53 0.57 0.63 0.71 0.80 0.87 0.86 0.88 0.89 0.92 0.95 1.02 1.11 1.09 1.10 1.09 1.12 1.08 1.15 1.17 1.25 1.25 1.32 1.27 1.27
0.30 0.32 0.35 0.39 0.41 0.45 0.51 0.55 0.59 0.71 0.77 0.79 0.90 0.94 0.96 1.01 1.04 1.12 1.21 1.21 1.22 1.16 1.17 1.17 1.11 1.11 1.12 1.18 1.20 1.22 1.18 1.22
0.28 0.33 0.39 0.40 0.42 0.48 0.53 0.57 0.67 0.76 0.83 0.85 0.87 0.90 0.95 1.01 1.05 1.11 1.21 1.32 1.27 1.17 1.24 1.18 1.14 1.15 1.11 1.18 1.21 1.14 1.11 1.17
0.31 0.37 0.41 0.42 0.47 0.52 0.57 0.65 0.72 0.73 0.80 0.81 0.84 0.91 0.95 1.02 1.07 1.12 1.16 1.24 1.32 1.22 1.20 1.22 1.19 1.21 1.22 1.28 1.22 1.17 1.10 1.16
0.33 0.41 0.42 0.47 0.52 0.58 0.65 0.68 0.69 0.72 0.73 0.77 0.84 0.89 0.92 0.96 1.00 1.06 1.11 1.13 1.12 1.12 1.15 1.17 1.19 1.20 1.24 1.30 1.26 1.24 1.17 1.17
0.39 0.42 0.48 0.53 0.58 0.59 0.63 0.65 0.68 0.70 0.71 0.71 0.75 0.84 0.88 0.91 0.95 0.97 1.01 1.03 1.06 1.08 1.06 1.06 1.09 1.16 1.24 1.33 1.29 1.26 1.25 1.21
0.41 0.48 0.52 0.55 0.57 0.59 0.60 0.63 0.67 0.68 0.69 0.70 0.72 0.76 0.82 0.85 0.89 0.92 0.92 0.95 0.99 0.98 1.00 1.01 1.03 1.09 1.17 1.27 1.25 1.19 1.13 1.08
0.48 0.50 0.52 0.54 0.57 0.58 0.60 0.63 0.64 0.66 0.68 0.70 0.73 0.74 0.76 0.79 0.81 0.85 0.86 0.89 0.90 0.89 0.91 0.92 1.00 0.98 1.12 1.15 1.18 1.14 1.10 1.09

GFSFLT1_prec_pwat_117.txt.gz
Precipitable_Water
0.53 0.57 0.62 0.65 0.67 0.70 0.70 0.69 0.69 0.73 0.75 0.79 0.96 1.02 1.05 1.20 1.44 1.70 1.70 1.70 1.54 1.45 1.39 1.37 1.46 1.45 1.40 1.30 1.23 1.25 1.15 1.15
0.61 0.63 0.65 0.64 0.65 0.66 0.66 0.65 0.65 0.66 0.67 0.64 0.64 0.74 0.93 0.99 1.03 1.24 1.43 1.62 1.68 1.53 1.45 1.49 1.49 1.46 1.38 1.42 1.31 1.23 1.15 1.21
0.62 0.63 0.66 0.66 0.64 0.66 0.64 0.64 0.64 0.65 0.65 0.69 0.71 0.68 0.69 0.74 0.84 0.99 1.14 1.32 1.49 1.67 1.63 1.49 1.49 1.47 1.51 1.43 1.39 1.26 1.25 1.24
0.61 0.60 0.63 0.65 0.64 0.65 0.62 0.60 0.59 0.61 0.61 0.61 0.61 0.64 0.68 0.67 0.66 0.78 0.93 1.01 1.10 1.33 1.46 1.41 1.54 1.60 1.54 1.53 1.41 1.32 1.18 1.24
0.62 0.59 0.61 0.63 0.64 0.62 0.56 0.54 0.56 0.57 0.57 0.53 0.52 0.50 0.49 0.56 0.60 0.65 0.68 0.86 0.95 1.08 1.17 1.34 1.37 1.38 1.52 1.48 1.45 1.45 1.36 1.14
0.64 0.64 0.63 0.62 0.60 0.56 0.50 0.50 0.51 0.51 0.51 0.50 0.48 0.46 0.48 0.49 0.51 0.52 0.56 0.62 0.74 0.92 1.01 1.10 1.18 1.28 1.28 1.37 1.46 1.40 1.34 1.26
0.65 0.66 0.64 0.60 0.58 0.52 0.45 0.45 0.45 0.45 0.46 0.46 0.46 0.45 0.46 0.46 0.45 0.45 0.47 0.50 0.53 0.61 0.84 0.94 1.07 1.14 1.20 1.24 1.25 1.32 1.29 1.21
0.62 0.59 0.53 0.50 0.45 0.39 0.40 0.39 0.37 0.40 0.41 0.41 0.42 0.43 0.45 0.45 0.47 0.47 0.47 0.47 0.47 0.50 0.58 0.71 0.89 1.08 1.10 1.28 1.33 1.27 1.23 1.20
0.55 0.51 0.44 0.42 0.41 0.40 0.38 0.37 0.38 0.40 0.40 0.38 0.40 0.42 0.43 0.46 0.47 0.48 0.48 0.50 0.52 0.54 0.53 0.58 0.66 0.88 1.04 1.08 1.37 1.34 1.29 1.16
0.60 0.48 0.43 0.40 0.37 0.34 0.33 0.32 0.33 0.36 0.37 0.39 0.41 0.44 0.46 0.47 0.50 0.51 0.52 0.53 0.55 0.58 0.61 0.58 0.60 0.70 0.98 1.02 1.07 1.28 1.33 1.19
0.48 0.47 0.46 0.43 0.38 0.34 0.34 0.35 0.36 0.37 0.40 0.43 0.45 0.46 0.49 0.52 0.54 0.54 0.57 0.60 0.62 0.65 0.68 0.68 0.65 0.65 0.84 1.06 0.93 0.93 1.10 1.16
0.43 0.43 0.42 0.38 0.35 0.33 0.34 0.35 0.38 0.39 0.42 0.45 0.48 0.51 0.52 0.55 0.57 0.60 0.65 0.67 0.71 0.75 0.81 0.83 0.80 0.71 0.70 0.96 0.96 0.88 1.02 1.12
0.42 0.40 0.37 0.33 0.31 0.32 0.34 0.36 0.39 0.41 0.42 0.46 0.49 0.51 0.55 0.57 0.61 0.65 0.73 0.78 0.85 0.90 0.93 0.94 0.94 0.86 0.74 0.91 0.91 0.96 1.03 1.11
0.38 0.35 0.32 0.30 0.31 0.33 0.36 0.39 0.41 0.43 0.45 0.48 0.50 0.54 0.57 0.60 0.65 0.70 0.83 0.85 0.90 0.97 1.00 1.02 1.00 0.92 0.84 0.89 0.99 1.02 1.08 1.08
0.34 0.33 0.32 0.31 0.33 0.36 0.40 0.42 0.44 0.46 0.48 0.51 0.53 0.59 0.63 0.67 0.71 0.79 0.81 0.85 0.89 0.94 0.97 1.00 1.01 1.00 1.00 0.98 1.06 1.07 1.13 1.21
0.34 0.31 0.32 0.32 0.36 0.40 0.43 0.45 0.47 0.52 0.53 0.57 0.60 0.66 0.69 0.72 0.75 0.78 0.78 0.81 0.86 0.90 0.96 0.99 1.02 1.00 1.02 1.07 1.13 1.14 1.19 1.21
0.33 0.34 0.34 0.35 0.40 0.43 0.45 0.48 0.52 0.56 0.58 0.60 0.65 0.67 0.69 0.71 0.74 0.76 0.77 0.79 0.82 0.87 0.90 0.88 0.92 0.95 1.00 1.12 1.25 1.24 1.26 1.15
0.33 0.33 0.35 0.39 0.44 0.48 0.50 0.53 0.56 0.57 0.59 0.60 0.62 0.64 0.66 0.70 0.72 0.72 0.73 0.74 0.77 0.80 0.84 0.87 0.90 0.92 0.95 1.01 1.01 1.17 1.04 1.04
0.34 0.36 0.39 0.44 0.49 0.52 0.54 0.55 0.56 0.56 0.57 0.58 0.60 0.62 0.64 0.67 0.69 0.70 0.71 0.73 0.76 0.78 0.80 0.85 0.84 0.89 0.99 0.96 0.93 1.02 0.98 0.96